Home   Weather   Gunsan   Past weeks

Flag for South Korea Past Weather in Gunsan, South Korea — Yesterday and Last 2 Weeks

Now
32 °F

Partly sunny.


Feels Like: 18 °F
Forecast: 22 / 35 °F
Wind: 26 mph from Northwest

Location: Kunsan Ab

Current Time: Jan 20, 2017 at 5:08:29 pm

Latest Report: Jan 20, 2017 at 3:58 pm


Visibility: 6 mi

Pressure: 30.27 "Hg

Humidity: 66%

Dew Point: 22 °F

Location of GunsanLocation

Past Weather in Gunsan — Graph

°F

Gunsan Temperature Yesterday

Maximum temperature yesterday: 40 °F (at 1:58 pm)
Minimum temperature yesterday: 26 °F (at 5:58 am)
Average temperature yesterday: 32 °F

High & Low Weather Summary for the Past Weeks

 TemperatureHumidityPressure
High54 °F (Jan 6, 2:58 pm)100% (Jan 6, 11:12 pm)30.50 "Hg (Jan 6, 11:12 pm)
Low16 °F (Jan 15, 6:20 am)30% (Jan 16, 11:58 am)29.89 "Hg (Jan 8, 4:58 pm)
Average34 °F75%30.22 "Hg
* Reported Jan 5 3:58 pm — Jan 20 3:58 pm, Gunsan, Weather by CustomWeather, © 2017

Note: Actual official high and low records may vary slightly from our data, if they occured in-between our weather recording intervals... More about our weather records

Advertising

Gunsan Weather History for the Previous 24 Hours

Scroll right to see more
 ConditionsComfort  
Time TempWeatherWind HumidityBarometerVisibility
3:58 pm
Fri, Jan 20
32 °FPartly sunny.26 mph66%30.27 "Hg6 mi
2:58 pm33 °FPartly sunny.30 mph66%30.24 "Hg8 mi
1:58 pm33 °FPartly sunny.30 mph67%30.22 "Hg6 mi
1:29 pm32 °FBroken clouds.31 mph69%30.19 "Hg8 mi
1:07 pm32 °FLight snow. Partly sunny.26 mph64%30.19 "Hg7 mi
12:53 pm32 °FBroken clouds.25 mph69%30.18 "Hg5 mi
12:21 pm32 °FLight snow. Broken clouds.26 mph69%30.18 "Hg5 mi
12:12 pm32 °FLight snow. Partly sunny.31 mph75%30.18 "Hg2 mi
11:56 am32 °FLight snow. Partly sunny.29 mph75%30.18 "Hg1 mi
11:30 am32 °FLight snow. Scattered clouds.29 mph75%30.18 "Hg3 mi
11:23 am32 °FLight snow. Partly sunny.32 mph75%30.17 "Hg2 mi
11:05 am30 °FLight snow. Mostly cloudy.28 mph86%30.18 "Hg2 mi
10:58 am30 °FLight snow. Ice fog.24 mph86%30.19 "Hg1 mi
9:58 am30 °FLight snow. Ice fog.28 mph86%30.15 "Hg1 mi
8:58 am31 °FLight snow. Scattered clouds.29 mph82%30.12 "Hg1 mi
8:25 am32 °FLight snow. Scattered clouds.28 mph80%30.10 "Hg2 mi
8:08 am32 °FLight snow. Ice fog.29 mph80%30.08 "Hg2 mi
7:57 am32 °FLight snow. Ice fog.30 mph86%30.09 "Hg2 mi
7:25 am32 °FLight snow. Ice fog.26 mph93%30.06 "Hg4 mi
7:14 am32 °FLight snow. Ice fog.29 mph93%30.05 "Hg4 mi
6:58 am31 °FLight snow. Ice fog.25 mph95%30.04 "Hg1 mi
6:43 am32 °FHeavy snow. Fog.33 mph93%30.03 "Hg0 mi
6:37 am32 °FSnow. Partly cloudy.32 mph87%30.02 "Hg1 mi
5:58 am34 °FPartly cloudy.25 mph78%30.02 "Hg7 mi
5:22 am34 °FPassing clouds.35 mph87%29.98 "Hg6 mi
4:58 am34 °FLight rain. Passing clouds.22 mph93%29.98 "Hg7 mi
3:58 am38 °FClear.16 mph68%29.99 "Hg5 mi
2:58 am37 °FHaze.22 mph80%30.01 "Hg4 mi
2:42 am36 °FFog.20 mph100%30.01 "Hg3 mi
2:36 am36 °FFog.22 mph93%30.01 "Hg2 mi
2:23 am34 °FLight rain. Fog.9 mph100%30.01 "Hg2 mi
1:58 am32 °FSnow. Fog.7 mph100%30.03 "Hg1 mi
1:36 am32 °FLight snow. Ice fog.9 mph100%30.02 "Hg1 mi
1:20 am32 °FLight rain. Ice fog.9 mph100%30.02 "Hg2 mi
12:43 am32 °FLight snow. Ice fog.8 mph100%30.05 "Hg3 mi
12:34 am32 °FLight snow. Ice fog.5 mph100%30.05 "Hg2 mi
11:58 pm
Thu, Jan 19
32 °FFog.3 mph88%30.09 "Hg6 mi
10:58 pm32 °FIce fog.5 mph87%30.12 "Hg6 mi
9:58 pm31 °FPassing clouds.3 mph82%30.12 "Hg7 mi
8:58 pm33 °FClear.No wind78%30.12 "Hg8 mi
7:58 pm34 °FOvercast.3 mph74%30.15 "Hg9 mi
7:35 pm32 °FPassing clouds.8 mph80%30.15 "Hg10 mi
7:03 pm36 °FDrizzle. Overcast.8 mph70%30.16 "Hg10 mi
5:58 pm36 °FPassing clouds.9 mph70%30.16 "Hg9 mi
Weather by CustomWeather, © 2017

See weather overviewHow to use our weather pages